Time,TemperatureF,DewpointF,PressureIn,WindDirection,WindDirectionDegrees,WindSpeedMPH,WindSpeedGustMPH,Humidity,HourlyPrecipIn,Conditions,Clouds,dailyrainin,SoftwareType,DateUTC
2013-01-24 00:03:00,42.0,28.0,30.09,South,176,1.0,-999.0,58,-99.99,,,-99.99,,2013-01-24 05:03:00,
2013-01-24 00:12:00,42.0,28.0,30.09,South,176,1.0,-999.0,58,-99.99,,,-99.99,,2013-01-24 05:12:00,
2013-01-24 00:23:00,42.0,29.0,30.09,South,175,2.0,-999.0,59,-99.99,,,-99.99,,2013-01-24 05:23:00,
2013-01-24 00:33:00,42.0,29.0,30.08,SSE,155,2.0,-999.0,60,-99.99,,,-99.99,,2013-01-24 05:33:00,
2013-01-24 00:43:00,42.0,29.0,30.08,SSE,155,2.0,-999.0,60,-99.99,,,-99.99,,2013-01-24 05:43:00,
2013-01-24 00:53:00,42.0,30.0,30.07,SSW,205,2.0,-999.0,61,-99.99,,,-99.99,,2013-01-24 05:53:00,
2013-01-24 01:03:00,42.0,30.0,30.07,SW,220,2.0,-999.0,61,-99.99,,,-99.99,,2013-01-24 06:03:00,
2013-01-24 01:12:00,42.0,30.0,30.07,SW,220,2.0,-999.0,61,-99.99,,,-99.99,,2013-01-24 06:12:00,
2013-01-24 01:22:00,42.0,30.0,30.06,WSW,250,2.0,-999.0,62,-99.99,,,-99.99,,2013-01-24 06:22:00,
2013-01-24 01:32:00,41.0,29.0,30.06,WSW,255,3.0,-999.0,63,-99.99,,,-99.99,,2013-01-24 06:32:00,
2013-01-24 01:42:00,41.0,29.0,30.06,WSW,255,3.0,-999.0,63,-99.99,,,-99.99,,2013-01-24 06:42:00,
2013-01-24 01:53:00,41.0,30.0,30.06,South,173,2.0,-999.0,64,-99.99,,,-99.99,,2013-01-24 06:53:00,
2013-01-24 02:03:00,41.0,30.0,30.05,East,89,1.0,-999.0,65,-99.99,,,-99.99,,2013-01-24 07:03:00,
2013-01-24 02:12:00,41.0,30.0,30.05,East,89,1.0,-999.0,65,-99.99,,,-99.99,,2013-01-24 07:12:00,
2013-01-24 02:23:00,41.0,31.0,30.05,South,171,2.0,-999.0,66,-99.99,,,-99.99,,2013-01-24 07:23:00,
2013-01-24 02:33:00,41.0,31.0,30.04,West,262,1.0,-999.0,67,-99.99,,,-99.99,,2013-01-24 07:33:00,
2013-01-24 02:43:00,41.0,31.0,30.04,West,262,1.0,-999.0,67,-99.99,,,-99.99,,2013-01-24 07:43:00,
2013-01-24 02:53:00,41.0,31.0,30.04,SSE,159,2.0,-999.0,68,-99.99,,,-99.99,,2013-01-24 07:53:00,
2013-01-24 03:02:00,41.0,31.0,30.04,SSE,159,2.0,-999.0,68,-99.99,,,-99.99,,2013-01-24 08:02:00,
2013-01-24 03:12:00,41.0,31.0,30.04,SSE,159,2.0,-999.0,68,-99.99,,,-99.99,,2013-01-24 08:12:00,
2013-01-24 03:23:00,41.0,32.0,30.03,NNE,32,2.0,-999.0,71,-99.99,,,-99.99,,2013-01-24 08:23:00,
2013-01-24 03:33:00,42.0,33.0,30.03,South,180,2.0,-999.0,71,-99.99,,,-99.99,,2013-01-24 08:33:00,
2013-01-24 03:43:00,42.0,33.0,30.03,South,180,2.0,-999.0,71,-99.99,,,-99.99,,2013-01-24 08:43:00,
2013-01-24 03:53:00,42.0,34.0,30.02,NW,311,3.0,-999.0,72,-99.99,,,-99.99,,2013-01-24 08:53:00,
2013-01-24 04:03:00,43.0,35.0,30.02,ESE,113,2.0,-999.0,72,-99.99,,,-99.99,,2013-01-24 09:03:00,
2013-01-24 04:13:00,43.0,35.0,30.02,ESE,113,2.0,-999.0,72,-99.99,,,-99.99,,2013-01-24 09:13:00,
2013-01-24 04:23:00,43.0,35.0,30.02,SSW,192,3.0,-999.0,72,-99.99,,,-99.99,,2013-01-24 09:23:00,
2013-01-24 04:33:00,43.0,35.0,30.01,WSW,248,3.0,-999.0,72,-99.99,,,-99.99,,2013-01-24 09:33:00,
2013-01-24 04:43:00,43.0,35.0,30.01,WSW,248,3.0,-999.0,72,-99.99,,,-99.99,,2013-01-24 09:43:00,
2013-01-24 04:53:00,44.0,35.0,30.01,South,180,3.0,-999.0,71,-99.99,,,-99.99,,2013-01-24 09:53:00,
2013-01-24 05:03:00,44.0,35.0,30.01,NNW,338,3.0,-999.0,71,-99.99,,,-99.99,,2013-01-24 10:03:00,
2013-01-24 05:12:00,44.0,35.0,30.01,NNW,338,3.0,-999.0,71,-99.99,,,-99.99,,2013-01-24 10:12:00,
2013-01-24 05:23:00,45.0,36.0,30.01,SSW,206,4.0,-999.0,70,-99.99,,,-99.99,,2013-01-24 10:23:00,
2013-01-24 05:33:00,45.0,35.0,30.02,South,179,3.0,-999.0,69,-99.99,,,-99.99,,2013-01-24 10:33:00,
2013-01-24 05:43:00,45.0,35.0,30.02,South,179,3.0,-999.0,69,-99.99,,,-99.99,,2013-01-24 10:43:00,
2013-01-24 05:53:00,45.0,35.0,30.03,SSW,197,3.0,-999.0,69,-99.99,,,-99.99,,2013-01-24 10:53:00,
2013-01-24 06:03:00,45.0,35.0,30.03,SSE,148,2.0,-999.0,69,-99.99,,,-99.99,,2013-01-24 11:03:00,
2013-01-24 06:12:00,45.0,35.0,30.03,SSE,148,2.0,-999.0,69,-99.99,,,-99.99,,2013-01-24 11:12:00,
2013-01-24 06:23:00,45.0,35.0,30.02,SSE,159,3.0,-999.0,69,-99.99,,,-99.99,,2013-01-24 11:23:00,
2013-01-24 06:33:00,45.0,35.0,30.02,SW,226,2.0,-999.0,68,-99.99,,,-99.99,,2013-01-24 11:33:00,
2013-01-24 06:43:00,45.0,35.0,30.02,SW,226,2.0,-999.0,68,-99.99,,,-99.99,,2013-01-24 11:43:00,
2013-01-24 06:53:00,45.0,35.0,30.02,NNE,13,2.0,-999.0,67,-99.99,,,-99.99,,2013-01-24 11:53:00,
2013-01-24 07:03:00,45.0,34.0,30.03,SE,144,3.0,-999.0,66,-99.99,,,-99.99,,2013-01-24 12:03:00,
2013-01-24 07:12:00,45.0,34.0,30.03,SE,144,3.0,-999.0,66,-99.99,,,-99.99,,2013-01-24 12:12:00,
2013-01-24 07:23:00,45.0,34.0,30.03,NE,46,3.0,-999.0,65,-99.99,,,-99.99,,2013-01-24 12:23:00,
2013-01-24 07:33:00,45.0,34.0,30.04,SSW,208,2.0,-999.0,65,-99.99,,,-99.99,,2013-01-24 12:33:00,
2013-01-24 07:43:00,45.0,34.0,30.04,SSW,208,2.0,-999.0,65,-99.99,,,-99.99,,2013-01-24 12:43:00,
2013-01-24 07:53:00,45.0,34.0,30.04,SW,230,2.0,-999.0,64,-99.99,,,-99.99,,2013-01-24 12:53:00,
2013-01-24 08:03:00,45.0,33.0,30.04,SW,225,1.0,-999.0,62,-99.99,,,-99.99,,2013-01-24 13:03:00,
2013-01-24 08:13:00,45.0,33.0,30.04,SW,225,1.0,-999.0,62,-99.99,,,-99.99,,2013-01-24 13:13:00,
2013-01-24 08:23:00,46.0,32.0,30.06,WNW,302,1.0,-999.0,58,-99.99,,,-99.99,,2013-01-24 13:23:00,
2013-01-24 08:33:00,47.0,31.0,30.06,NNE,31,3.0,-999.0,53,-99.99,,,-99.99,,2013-01-24 13:33:00,
2013-01-24 08:43:00,47.0,31.0,30.06,NNE,31,3.0,-999.0,53,-99.99,,,-99.99,,2013-01-24 13:43:00,
2013-01-24 08:53:00,47.0,30.0,30.08,WSW,252,3.0,-999.0,51,-99.99,,,-99.99,,2013-01-24 13:53:00,
2013-01-24 09:03:00,48.0,29.0,30.08,NW,316,3.0,-999.0,48,-99.99,,,-99.99,,2013-01-24 14:03:00,
2013-01-24 09:12:00,48.0,29.0,30.08,NW,316,3.0,-999.0,48,-99.99,,,-99.99,,2013-01-24 14:12:00,
2013-01-24 09:23:00,49.0,29.0,30.10,NW,305,4.0,-999.0,46,-99.99,,,-99.99,,2013-01-24 14:23:00,
2013-01-24 09:33:00,50.0,28.0,30.11,WNW,297,4.0,-999.0,43,-99.99,,,-99.99,,2013-01-24 14:33:00,
2013-01-24 09:43:00,50.0,28.0,30.11,WNW,297,4.0,-999.0,43,-99.99,,,-99.99,,2013-01-24 14:43:00,
2013-01-24 09:54:00,50.0,28.0,30.11,WNW,297,4.0,-999.0,43,-99.99,,,-99.99,,2013-01-24 14:54:00,
2013-01-24 10:04:00,50.0,31.0,30.13,ENE,65,3.0,-999.0,48,-99.99,,,-99.99,,2013-01-24 15:04:00,
2013-01-24 10:13:00,50.0,31.0,30.13,ENE,65,3.0,-999.0,48,-99.99,,,-99.99,,2013-01-24 15:13:00,
2013-01-24 10:23:00,49.0,31.0,30.13,East,96,4.0,-999.0,49,-99.99,,,-99.99,,2013-01-24 15:23:00,
2013-01-24 10:33:00,49.0,31.0,30.13,East,96,4.0,-999.0,49,-99.99,,,-99.99,,2013-01-24 15:33:00,
2013-01-24 10:43:00,49.0,30.0,30.14,East,83,3.0,-999.0,48,-99.99,,,-99.99,,2013-01-24 15:43:00,
2013-01-24 10:53:00,49.0,30.0,30.16,ENE,66,3.0,-999.0,47,-99.99,,,-99.99,,2013-01-24 15:53:00,
2013-01-24 11:03:00,49.0,30.0,30.16,NE,40,3.0,-999.0,47,-99.99,,,-99.99,,2013-01-24 16:03:00,
2013-01-24 11:12:00,49.0,30.0,30.16,NE,40,3.0,-999.0,47,-99.99,,,-99.99,,2013-01-24 16:12:00,
2013-01-24 11:23:00,50.0,29.0,30.16,NE,44,3.0,-999.0,45,-99.99,,,-99.99,,2013-01-24 16:23:00,
2013-01-24 11:33:00,50.0,27.0,30.18,NE,48,3.0,-999.0,40,-99.99,,,-99.99,,2013-01-24 16:33:00,
2013-01-24 11:43:00,50.0,27.0,30.18,NE,48,3.0,-999.0,40,-99.99,,,-99.99,,2013-01-24 16:43:00,
2013-01-24 12:03:00,49.0,23.0,30.18,North,355,5.0,-999.0,35,-99.99,,,-99.99,,2013-01-24 17:03:00,
2013-01-24 12:12:00,49.0,23.0,30.18,North,355,5.0,-999.0,35,-99.99,,,-99.99,,2013-01-24 17:12:00,
2013-01-24 12:22:00,49.0,23.0,30.19,North,355,6.0,-999.0,35,-99.99,,,-99.99,,2013-01-24 17:22:00,
2013-01-24 12:32:00,51.0,23.0,30.19,North,355,3.0,-999.0,33,-99.99,,,-99.99,,2013-01-24 17:32:00,
2013-01-24 12:42:00,51.0,23.0,30.19,North,355,3.0,-999.0,33,-99.99,,,-99.99,,2013-01-24 17:42:00,
2013-01-24 12:52:00,51.0,21.0,30.19,NNW,345,4.0,-999.0,30,-99.99,,,-99.99,,2013-01-24 17:52:00,
2013-01-24 13:03:00,50.0,21.0,30.20,NE,46,6.0,-999.0,31,-99.99,,,-99.99,,2013-01-24 18:03:00,
2013-01-24 13:12:00,50.0,20.0,30.20,NNW,338,5.0,-999.0,30,-99.99,,,-99.99,,2013-01-24 18:12:00,
2013-01-24 13:23:00,50.0,20.0,30.20,NNW,338,5.0,-999.0,30,-99.99,,,-99.99,,2013-01-24 18:23:00,
2013-01-24 13:33:00,50.0,20.0,30.20,NNW,338,5.0,-999.0,30,-99.99,,,-99.99,,2013-01-24 18:33:00,
2013-01-24 13:42:00,50.0,20.0,30.20,NNW,338,5.0,-999.0,30,-99.99,,,-99.99,,2013-01-24 18:42:00,
2013-01-24 13:53:00,49.0,19.0,30.21,NE,47,5.0,-999.0,30,-99.99,,,-99.99,,2013-01-24 18:53:00,
2013-01-24 14:02:00,49.0,18.0,30.21,ENE,71,5.0,-999.0,29,-99.99,,,-99.99,,2013-01-24 19:02:00,
2013-01-24 14:13:00,49.0,18.0,30.21,ENE,71,5.0,-999.0,29,-99.99,,,-99.99,,2013-01-24 19:13:00,
2013-01-24 14:22:00,49.0,16.0,30.21,NNE,32,4.0,-999.0,27,-99.99,,,-99.99,,2013-01-24 19:22:00,
2013-01-24 14:33:00,49.0,16.0,30.21,NNE,32,4.0,-999.0,27,-99.99,,,-99.99,,2013-01-24 19:33:00,
2013-01-24 14:42:00,49.0,16.0,30.21,NNE,32,4.0,-999.0,27,-99.99,,,-99.99,,2013-01-24 19:42:00,
2013-01-24 14:53:00,49.0,16.0,30.21,North,360,5.0,-999.0,26,-99.99,,,-99.99,,2013-01-24 19:53:00,
2013-01-24 15:02:00,49.0,16.0,30.21,NNE,28,4.0,-999.0,26,-99.99,,,-99.99,,2013-01-24 20:02:00,
2013-01-24 15:12:00,49.0,16.0,30.21,NNE,28,4.0,-999.0,26,-99.99,,,-99.99,,2013-01-24 20:12:00,
2013-01-24 15:22:00,49.0,16.0,30.22,North,355,4.0,-999.0,26,-99.99,,,-99.99,,2013-01-24 20:22:00,
2013-01-24 15:33:00,49.0,15.0,30.22,East,79,3.0,-999.0,25,-99.99,,,-99.99,,2013-01-24 20:33:00,
2013-01-24 15:42:00,49.0,15.0,30.22,East,79,3.0,-999.0,25,-99.99,,,-99.99,,2013-01-24 20:42:00,
2013-01-24 15:52:00,49.0,16.0,30.23,NE,46,4.0,-999.0,26,-99.99,,,-99.99,,2013-01-24 20:52:00,
2013-01-24 16:03:00,49.0,16.0,30.24,ENE,63,3.0,-999.0,26,-99.99,,,-99.99,,2013-01-24 21:03:00,
2013-01-24 16:12:00,49.0,16.0,30.24,ENE,63,3.0,-999.0,26,-99.99,,,-99.99,,2013-01-24 21:12:00,
2013-01-24 16:23:00,49.0,14.0,30.24,NW,321,4.0,-999.0,24,-99.99,,,-99.99,,2013-01-24 21:23:00,
2013-01-24 16:33:00,48.0,14.0,30.25,NNW,327,3.0,-999.0,25,-99.99,,,-99.99,,2013-01-24 21:33:00,
2013-01-24 16:43:00,48.0,14.0,30.25,NNW,327,3.0,-999.0,25,-99.99,,,-99.99,,2013-01-24 21:43:00,
2013-01-24 16:53:00,48.0,13.0,30.25,NNW,340,2.0,-999.0,24,-99.99,,,-99.99,,2013-01-24 21:53:00,
2013-01-24 17:03:00,47.0,13.0,30.26,NNW,342,3.0,-999.0,25,-99.99,,,-99.99,,2013-01-24 22:03:00,
2013-01-24 17:12:00,47.0,13.0,30.26,NNW,342,3.0,-999.0,25,-99.99,,,-99.99,,2013-01-24 22:12:00,
2013-01-24 17:22:00,46.0,9.0,30.27,East,96,4.0,-999.0,22,-99.99,,,-99.99,,2013-01-24 22:22:00,
2013-01-24 17:33:00,45.0,6.0,30.28,NE,36,4.0,-999.0,20,-99.99,,,-99.99,,2013-01-24 22:33:00,
2013-01-24 17:42:00,45.0,6.0,30.28,NE,36,4.0,-999.0,20,-99.99,,,-99.99,,2013-01-24 22:42:00,
2013-01-24 17:53:00,44.0,4.0,30.28,ENE,60,3.0,-999.0,19,-99.99,,,-99.99,,2013-01-24 22:53:00,
2013-01-24 18:03:00,44.0,3.0,30.29,North,5,3.0,-999.0,18,-99.99,,,-99.99,,2013-01-24 23:03:00,
2013-01-24 18:12:00,44.0,3.0,30.29,North,5,3.0,-999.0,18,-99.99,,,-99.99,,2013-01-24 23:12:00,
2013-01-24 18:22:00,43.0,2.0,30.30,North,350,3.0,-999.0,18,-99.99,,,-99.99,,2013-01-24 23:22:00,
2013-01-24 18:32:00,43.0,5.0,30.31,NE,41,2.0,-999.0,20,-99.99,,,-99.99,,2013-01-24 23:32:00,
2013-01-24 18:42:00,43.0,5.0,30.31,NE,41,2.0,-999.0,20,-99.99,,,-99.99,,2013-01-24 23:42:00,
2013-01-24 18:52:00,42.0,4.0,30.32,NE,34,3.0,-999.0,20,-99.99,,,-99.99,,2013-01-24 23:52:00,
2013-01-24 19:02:00,42.0,5.0,30.33,NNE,30,2.0,-999.0,21,-99.99,,,-99.99,,2013-01-25 00:02:00,
2013-01-24 19:12:00,42.0,5.0,30.33,NNE,30,2.0,-999.0,21,-99.99,,,-99.99,,2013-01-25 00:12:00,
2013-01-24 19:22:00,41.0,5.0,30.33,NNE,21,4.0,-999.0,22,-99.99,,,-99.99,,2013-01-25 00:22:00,
2013-01-24 19:32:00,40.0,10.0,30.34,NNE,17,4.0,-999.0,29,-99.99,,,-99.99,,2013-01-25 00:32:00,
2013-01-24 19:42:00,40.0,10.0,30.34,NNE,17,4.0,-999.0,29,-99.99,,,-99.99,,2013-01-25 00:42:00,
2013-01-24 19:53:00,39.0,12.0,30.35,East,90,4.0,-999.0,33,-99.99,,,-99.99,,2013-01-25 00:53:00,
2013-01-24 20:02:00,37.0,12.0,30.37,ESE,104,5.0,-999.0,35,-99.99,,,-99.99,,2013-01-25 01:02:00,
2013-01-24 20:12:00,37.0,12.0,30.37,ESE,104,5.0,-999.0,35,-99.99,,,-99.99,,2013-01-25 01:12:00,
2013-01-24 20:22:00,36.0,11.0,30.37,NE,45,5.0,-999.0,35,-99.99,,,-99.99,,2013-01-25 01:22:00,
2013-01-24 20:32:00,36.0,12.0,30.38,ENE,76,4.0,-999.0,36,-99.99,,,-99.99,,2013-01-25 01:32:00,
2013-01-24 20:42:00,36.0,12.0,30.38,ENE,76,4.0,-999.0,36,-99.99,,,-99.99,,2013-01-25 01:42:00,
2013-01-24 20:52:00,35.0,11.0,30.38,NE,46,6.0,-999.0,36,-99.99,,,-99.99,,2013-01-25 01:52:00,
2013-01-24 21:02:00,34.0,10.0,30.39,ENE,77,7.0,-999.0,36,-99.99,,,-99.99,,2013-01-25 02:02:00,
2013-01-24 21:12:00,34.0,10.0,30.39,ENE,77,7.0,-999.0,36,-99.99,,,-99.99,,2013-01-25 02:12:00,
2013-01-24 21:22:00,34.0,10.0,30.39,ENE,77,7.0,-999.0,36,-99.99,,,-99.99,,2013-01-25 02:22:00,
2013-01-24 21:32:00,33.0,10.0,30.41,East,81,4.0,-999.0,37,-99.99,,,-99.99,,2013-01-25 02:32:00,
2013-01-24 21:42:00,33.0,10.0,30.41,East,81,4.0,-999.0,37,-99.99,,,-99.99,,2013-01-25 02:42:00,
2013-01-24 21:53:00,32.0,9.0,30.42,ENE,66,3.0,-999.0,37,-99.99,,,-99.99,,2013-01-25 02:53:00,
2013-01-24 22:02:00,32.0,9.0,30.43,ENE,64,3.0,-999.0,37,-99.99,,,-99.99,,2013-01-25 03:02:00,
2013-01-24 22:12:00,31.0,8.0,30.43,ENE,63,3.0,-999.0,37,-99.99,,,-99.99,,2013-01-25 03:12:00,
2013-01-24 22:22:00,31.0,8.0,30.43,ENE,63,3.0,-999.0,37,-99.99,,,-99.99,,2013-01-25 03:22:00,
2013-01-24 22:33:00,31.0,7.0,30.43,ENE,59,3.0,-999.0,36,-99.99,,,-99.99,,2013-01-25 03:33:00,
2013-01-24 22:42:00,31.0,7.0,30.43,ENE,59,3.0,-999.0,36,-99.99,,,-99.99,,2013-01-25 03:42:00,
2013-01-24 22:53:00,30.0,7.0,30.44,ENE,68,2.0,-999.0,37,-99.99,,,-99.99,,2013-01-25 03:53:00,
2013-01-24 23:02:00,30.0,8.0,30.45,East,84,3.0,-999.0,39,-99.99,,,-99.99,,2013-01-25 04:02:00,
2013-01-24 23:12:00,30.0,8.0,30.45,East,84,3.0,-999.0,39,-99.99,,,-99.99,,2013-01-25 04:12:00,
2013-01-24 23:22:00,30.0,8.0,30.45,East,88,5.0,-999.0,38,-99.99,,,-99.99,,2013-01-25 04:22:00,
2013-01-24 23:32:00,29.0,7.0,30.45,ENE,61,2.0,-999.0,38,-99.99,,,-99.99,,2013-01-25 04:32:00,
2013-01-24 23:42:00,29.0,7.0,30.45,ENE,61,2.0,-999.0,38,-99.99,,,-99.99,,2013-01-25 04:42:00,
2013-01-24 23:52:00,29.0,7.0,30.45,East,82,2.0,-999.0,38,-99.99,,,-99.99,,2013-01-25 04:52:00,